TimeAKDT,TemperatureF,Dew PointF,Humidity,Sea Level PressureIn,VisibilityMPH,Wind Direction,Wind SpeedMPH,Gust SpeedMPH,PrecipitationIn,Events,Conditions,WindDirDegrees,DateUTC
12:54 AM,43.0,39.9,89,29.63,10.0,WNW,8.1,-,N/A,,Overcast,300,2011-10-05 08:54:00
1:54 AM,42.1,39.0,89,29.64,10.0,WNW,9.2,-,N/A,,Scattered Clouds,290,2011-10-05 09:54:00
2:54 AM,43.0,39.0,86,29.65,10.0,WNW,9.2,-,N/A,,Overcast,300,2011-10-05 10:54:00
3:54 AM,42.1,39.0,89,29.65,10.0,WNW,4.6,-,N/A,,Overcast,300,2011-10-05 11:54:00
4:54 AM,41.0,39.0,93,29.65,10.0,WNW,12.7,-,N/A,,Clear,300,2011-10-05 12:54:00
5:54 AM,42.1,39.0,89,29.66,10.0,WNW,9.2,-,N/A,,Scattered Clouds,300,2011-10-05 13:54:00
6:54 AM,41.0,37.9,89,29.67,10.0,WNW,10.4,-,N/A,,Clear,290,2011-10-05 14:54:00
7:54 AM,41.0,37.9,89,29.68,10.0,WNW,9.2,-,N/A,,Clear,300,2011-10-05 15:54:00
8:54 AM,42.1,39.0,89,29.69,10.0,WNW,8.1,-,N/A,,Mostly Cloudy,290,2011-10-05 16:54:00
9:54 AM,43.0,39.0,86,29.70,10.0,WNW,8.1,-,N/A,,Clear,290,2011-10-05 17:54:00
10:54 AM,46.9,39.9,77,29.70,10.0,WNW,8.1,-,N/A,,Clear,290,2011-10-05 18:54:00
11:54 AM,46.9,39.9,77,29.71,10.0,West,8.1,-,N/A,,Clear,280,2011-10-05 19:54:00
12:54 PM,50.0,39.9,68,29.72,10.0,Calm,Calm,-,N/A,,Scattered Clouds,0,2011-10-05 20:54:00
1:54 PM,48.9,42.1,77,29.71,10.0,SE,6.9,-,N/A,,Clear,140,2011-10-05 21:54:00
2:54 PM,48.9,42.1,77,29.72,10.0,SE,8.1,-,N/A,,Clear,130,2011-10-05 22:54:00
3:54 PM,46.9,42.1,83,29.73,10.0,East,5.8,-,N/A,,Partly Cloudy,100,2011-10-05 23:54:00
4:54 PM,46.9,42.1,83,29.73,10.0,East,5.8,-,N/A,,Overcast,100,2011-10-06 00:54:00
5:54 PM,46.9,43.0,86,29.74,10.0,East,4.6,-,N/A,,Overcast,90,2011-10-06 01:54:00
6:54 PM,46.0,43.0,89,29.73,10.0,Calm,Calm,-,N/A,,Overcast,0,2011-10-06 02:54:00
7:54 PM,46.0,43.0,89,29.73,10.0,East,4.6,-,N/A,,Overcast,80,2011-10-06 03:54:00
8:54 PM,46.9,43.0,86,29.74,10.0,ESE,6.9,-,N/A,,Overcast,120,2011-10-06 04:54:00
9:54 PM,48.9,41.0,74,29.74,10.0,East,9.2,-,N/A,,Overcast,90,2011-10-06 05:54:00
10:01 PM,48.2,42.8,82,29.73,10.0,East,6.9,-,N/A,,Overcast,100,2011-10-06 06:01:00
10:54 PM,48.0,42.1,80,29.73,10.0,East,6.9,-,N/A,,Overcast,90,2011-10-06 06:54:00
11:30 PM,48.2,42.8,82,29.72,10.0,East,6.9,-,N/A,,Overcast,100,2011-10-06 07:30:00
11:54 PM,48.0,43.0,83,29.73,10.0,SE,6.9,-,N/A,,Overcast,140,2011-10-06 07:54:00